Time,TemperatureF,DewpointF,PressureIn,WindDirection,WindDirectionDegrees,WindSpeedMPH,WindSpeedGustMPH,Humidity,HourlyPrecipIn,Conditions,Clouds,dailyrainin,SolarRadiationWatts/m^2,SoftwareType,DateUTC
2013-06-23 00:01:00,74.1,70.6,30.00,ESE,102,0.0,0.0,89,0.00,,,0.00,0,WxPro DR1,2013-06-23 04:01:00,
2013-06-23 00:06:00,73.9,70.4,30.00,ESE,102,0.0,0.0,89,0.00,,,0.00,0,WxPro DR1,2013-06-23 04:06:00,
2013-06-23 00:11:00,73.8,70.6,30.00,ESE,102,0.0,0.0,90,0.00,,,0.00,0,WxPro DR1,2013-06-23 04:11:00,
2013-06-23 00:16:00,73.7,70.6,30.00,ESE,102,0.0,0.0,90,0.00,,,0.00,0,WxPro DR1,2013-06-23 04:16:00,
2013-06-23 00:21:00,73.6,69.9,30.00,ESE,102,0.0,0.0,88,0.00,,,0.00,0,WxPro DR1,2013-06-23 04:21:00,
2013-06-23 00:26:00,74.0,69.6,30.00,ESE,102,0.0,1.0,86,0.00,,,0.00,0,WxPro DR1,2013-06-23 04:26:00,
2013-06-23 00:31:00,74.9,69.6,30.00,ESE,102,0.0,2.0,84,0.00,,,0.00,0,WxPro DR1,2013-06-23 04:31:00,
2013-06-23 00:36:00,75.6,69.6,30.00,ESE,102,0.0,2.0,82,0.00,,,0.00,0,WxPro DR1,2013-06-23 04:36:00,
2013-06-23 00:41:00,76.1,69.5,30.00,ESE,102,0.0,2.0,80,0.00,,,0.00,0,WxPro DR1,2013-06-23 04:41:00,
2013-06-23 00:46:00,76.5,69.5,29.99,South,184,0.0,3.0,79,0.00,,,0.00,0,WxPro DR1,2013-06-23 04:46:00,
2013-06-23 00:51:00,76.7,69.3,29.99,South,186,0.0,4.0,78,0.00,,,0.00,0,WxPro DR1,2013-06-23 04:51:00,
2013-06-23 00:56:00,76.8,69.4,29.99,South,187,0.0,4.0,78,0.00,,,0.00,0,WxPro DR1,2013-06-23 04:56:00,
2013-06-23 01:01:00,76.8,69.1,30.00,South,189,0.0,4.0,77,0.00,,,0.00,0,WxPro DR1,2013-06-23 05:01:00,
2013-06-23 01:06:00,76.9,69.2,29.99,South,190,0.0,4.0,77,0.00,,,0.00,0,WxPro DR1,2013-06-23 05:06:00,
2013-06-23 01:11:00,77.0,69.2,29.99,South,188,0.0,2.0,77,0.00,,,0.00,0,WxPro DR1,2013-06-23 05:11:00,
2013-06-23 01:16:00,76.9,69.2,29.99,South,190,0.0,3.0,77,0.00,,,0.00,0,WxPro DR1,2013-06-23 05:16:00,
2013-06-23 01:21:00,76.9,69.1,29.99,South,190,0.0,3.0,77,0.00,,,0.00,0,WxPro DR1,2013-06-23 05:21:00,
2013-06-23 01:26:00,76.9,69.1,29.99,South,190,1.0,2.0,77,0.00,,,0.00,0,WxPro DR1,2013-06-23 05:26:00,
2013-06-23 01:31:00,77.0,69.2,29.99,South,190,2.0,3.0,77,0.00,,,0.00,0,WxPro DR1,2013-06-23 05:31:00,
2013-06-23 01:36:00,77.1,69.3,30.00,SW,230,3.0,3.0,77,0.00,,,0.00,0,WxPro DR1,2013-06-23 05:36:00,
2013-06-23 01:41:00,77.1,69.3,29.99,SW,230,0.0,3.0,77,0.00,,,0.00,0,WxPro DR1,2013-06-23 05:41:00,
2013-06-23 01:46:00,77.1,69.3,30.00,SW,229,0.0,3.0,77,0.00,,,0.00,0,WxPro DR1,2013-06-23 05:46:00,
2013-06-23 01:51:00,76.8,69.4,30.00,SW,229,0.0,1.0,78,0.00,,,0.00,0,WxPro DR1,2013-06-23 05:51:00,
2013-06-23 01:56:00,76.5,69.4,30.00,SW,230,0.0,1.0,79,0.00,,,0.00,0,WxPro DR1,2013-06-23 05:56:00,
2013-06-23 02:01:00,76.3,69.3,30.00,SW,230,0.0,0.0,79,0.00,,,0.00,0,WxPro DR1,2013-06-23 06:01:00,
2013-06-23 02:06:00,76.1,69.5,30.00,SW,229,0.0,1.0,80,0.00,,,0.00,0,WxPro DR1,2013-06-23 06:06:00,
2013-06-23 02:11:00,75.9,69.3,30.01,SW,234,1.0,4.0,80,0.00,,,0.00,0,WxPro DR1,2013-06-23 06:11:00,
2013-06-23 02:16:00,75.8,69.1,30.01,SW,235,0.0,4.0,80,0.00,,,0.00,0,WxPro DR1,2013-06-23 06:16:00,
2013-06-23 02:21:00,75.7,69.1,30.01,SW,235,0.0,4.0,80,0.00,,,0.00,0,WxPro DR1,2013-06-23 06:21:00,
2013-06-23 02:26:00,75.6,69.4,30.01,WSW,237,0.0,3.0,81,0.00,,,0.00,0,WxPro DR1,2013-06-23 06:26:00,
2013-06-23 02:31:00,75.6,69.3,30.01,WSW,240,1.0,4.0,81,0.00,,,0.00,0,WxPro DR1,2013-06-23 06:31:00,
2013-06-23 02:36:00,75.6,69.3,30.00,WSW,244,0.0,4.0,81,0.00,,,0.00,0,WxPro DR1,2013-06-23 06:36:00,
2013-06-23 02:41:00,75.6,69.3,30.00,WSW,245,0.0,4.0,81,0.00,,,0.00,0,WxPro DR1,2013-06-23 06:41:00,
2013-06-23 02:46:00,75.5,69.3,30.00,WSW,244,0.0,3.0,81,0.00,,,0.00,0,WxPro DR1,2013-06-23 06:46:00,
2013-06-23 02:51:00,75.4,69.5,30.00,WSW,245,0.0,0.0,82,0.00,,,0.00,0,WxPro DR1,2013-06-23 06:51:00,
2013-06-23 02:56:00,75.2,69.3,30.00,WSW,245,0.0,0.0,82,0.00,,,0.00,0,WxPro DR1,2013-06-23 06:56:00,
2013-06-23 03:01:00,74.9,69.4,30.00,WSW,244,0.0,0.0,83,0.00,,,0.00,0,WxPro DR1,2013-06-23 07:01:00,
2013-06-23 03:06:00,74.7,69.2,30.00,WSW,245,0.0,0.0,83,0.00,,,0.00,0,WxPro DR1,2013-06-23 07:06:00,
2013-06-23 03:11:00,74.3,69.2,30.00,WSW,245,0.0,0.0,84,0.00,,,0.00,0,WxPro DR1,2013-06-23 07:11:00,
2013-06-23 03:16:00,74.0,69.2,30.00,WSW,245,0.0,0.0,85,0.00,,,0.00,0,WxPro DR1,2013-06-23 07:16:00,
2013-06-23 03:21:00,73.7,68.9,30.00,WSW,245,0.0,0.0,85,0.00,,,0.00,0,WxPro DR1,2013-06-23 07:21:00,
2013-06-23 03:26:00,73.4,69.0,30.00,WSW,245,0.0,1.0,86,0.00,,,0.00,0,WxPro DR1,2013-06-23 07:26:00,
2013-06-23 03:31:00,73.2,68.8,30.00,WSW,245,0.0,1.0,86,0.00,,,0.00,0,WxPro DR1,2013-06-23 07:31:00,
2013-06-23 03:36:00,73.1,68.6,30.00,WSW,245,0.0,0.0,86,0.00,,,0.00,0,WxPro DR1,2013-06-23 07:36:00,
2013-06-23 03:41:00,72.9,68.5,29.99,WSW,245,0.0,0.0,86,0.00,,,0.00,0,WxPro DR1,2013-06-23 07:41:00,
2013-06-23 03:46:00,72.8,68.3,30.00,WSW,245,0.0,0.0,86,0.00,,,0.00,0,WxPro DR1,2013-06-23 07:46:00,
2013-06-23 03:51:00,72.6,68.2,30.00,WSW,244,0.0,0.0,86,0.00,,,0.00,0,WxPro DR1,2013-06-23 07:51:00,
2013-06-23 03:56:00,72.5,68.4,29.99,WSW,245,0.0,0.0,87,0.00,,,0.00,0,WxPro DR1,2013-06-23 07:56:00,
2013-06-23 04:01:00,72.2,68.2,29.99,WSW,245,0.0,1.0,87,0.00,,,0.00,0,WxPro DR1,2013-06-23 08:01:00,
2013-06-23 04:06:00,72.1,68.3,29.99,WSW,244,0.0,2.0,88,0.00,,,0.00,0,WxPro DR1,2013-06-23 08:06:00,
2013-06-23 04:11:00,72.1,68.0,29.99,WSW,245,0.0,2.0,87,0.00,,,0.00,0,WxPro DR1,2013-06-23 08:11:00,
2013-06-23 04:16:00,72.2,68.1,29.99,WSW,245,0.0,1.0,87,0.00,,,0.00,0,WxPro DR1,2013-06-23 08:16:00,
2013-06-23 04:21:00,72.4,68.3,29.99,WSW,244,0.0,1.0,87,0.00,,,0.00,0,WxPro DR1,2013-06-23 08:21:00,
2013-06-23 04:26:00,72.5,68.4,29.99,WSW,245,0.0,2.0,87,0.00,,,0.00,0,WxPro DR1,2013-06-23 08:26:00,
2013-06-23 04:31:00,72.6,68.5,29.98,WSW,245,0.0,2.0,87,0.00,,,0.00,0,WxPro DR1,2013-06-23 08:31:00,
2013-06-23 04:36:00,72.8,68.4,29.98,SSW,211,0.0,5.0,86,0.00,,,0.00,0,WxPro DR1,2013-06-23 08:36:00,
2013-06-23 04:41:00,73.1,68.6,29.98,SSW,194,2.0,5.0,86,0.00,,,0.00,0,WxPro DR1,2013-06-23 08:41:00,
2013-06-23 04:46:00,73.3,68.5,29.98,SSW,194,0.0,5.0,85,0.00,,,0.00,0,WxPro DR1,2013-06-23 08:46:00,
2013-06-23 04:51:00,73.5,68.7,29.99,SSW,194,0.0,2.0,85,0.00,,,0.00,0,WxPro DR1,2013-06-23 08:51:00,
2013-06-23 04:56:00,73.5,68.7,29.99,SSW,194,0.0,1.0,85,0.00,,,0.00,0,WxPro DR1,2013-06-23 08:56:00,
2013-06-23 05:01:00,73.5,68.7,29.99,SSW,194,0.0,2.0,85,0.00,,,0.00,0,WxPro DR1,2013-06-23 09:01:00,
2013-06-23 05:06:00,73.4,68.6,29.99,SSW,194,0.0,2.0,85,0.00,,,0.00,0,WxPro DR1,2013-06-23 09:06:00,
2013-06-23 05:11:00,73.4,68.6,30.00,SSW,194,0.0,3.0,85,0.00,,,0.00,0,WxPro DR1,2013-06-23 09:11:00,
2013-06-23 05:16:00,73.3,68.7,30.00,SSW,194,1.0,3.0,85,0.00,,,0.00,0,WxPro DR1,2013-06-23 09:16:00,
2013-06-23 05:21:00,73.3,68.8,30.00,SSW,194,0.0,4.0,86,0.00,,,0.00,0,WxPro DR1,2013-06-23 09:21:00,
2013-06-23 05:26:00,73.2,68.8,30.00,SSW,201,1.0,4.0,86,0.00,,,0.00,0,WxPro DR1,2013-06-23 09:26:00,
2013-06-23 05:31:00,73.3,68.8,30.00,SSW,201,0.0,4.0,86,0.00,,,0.00,0,WxPro DR1,2013-06-23 09:31:00,
2013-06-23 05:36:00,73.3,68.8,30.00,SSW,199,0.0,3.0,86,0.00,,,0.00,0,WxPro DR1,2013-06-23 09:36:00,
2013-06-23 05:41:00,73.3,68.8,30.01,SSW,201,1.0,3.0,86,0.00,,,0.00,7,WxPro DR1,2013-06-23 09:41:00,
2013-06-23 05:46:00,73.3,68.8,30.00,SSW,198,0.0,3.0,86,0.00,,,0.00,11,WxPro DR1,2013-06-23 09:46:00,
2013-06-23 05:51:00,73.2,68.8,30.00,SSW,198,0.0,3.0,86,0.00,,,0.00,12,WxPro DR1,2013-06-23 09:51:00,
2013-06-23 05:56:00,73.2,68.8,30.01,SSW,198,0.0,3.0,86,0.00,,,0.00,14,WxPro DR1,2013-06-23 09:56:00,
2013-06-23 06:01:00,73.3,68.8,30.00,SSW,198,0.0,3.0,86,0.00,,,0.00,18,WxPro DR1,2013-06-23 10:01:00,
2013-06-23 06:06:00,73.3,68.8,30.01,SSW,209,1.0,4.0,86,0.00,,,0.00,19,WxPro DR1,2013-06-23 10:06:00,
2013-06-23 06:11:00,73.3,68.9,30.01,SSW,209,0.0,4.0,86,0.00,,,0.00,25,WxPro DR1,2013-06-23 10:11:00,
2013-06-23 06:16:00,73.4,69.0,30.01,SSW,209,0.0,3.0,86,0.00,,,0.00,32,WxPro DR1,2013-06-23 10:16:00,
2013-06-23 06:21:00,73.6,69.1,30.01,SSW,209,1.0,2.0,86,0.00,,,0.00,42,WxPro DR1,2013-06-23 10:21:00,
2013-06-23 06:26:00,73.7,69.2,30.01,SSW,209,0.0,2.0,86,0.00,,,0.00,51,WxPro DR1,2013-06-23 10:26:00,
2013-06-23 06:31:00,73.8,69.4,30.01,SSW,209,0.0,2.0,86,0.00,,,0.00,60,WxPro DR1,2013-06-23 10:31:00,
2013-06-23 06:36:00,74.0,69.2,30.01,SSW,208,0.0,4.0,85,0.00,,,0.00,62,WxPro DR1,2013-06-23 10:36:00,
2013-06-23 06:41:00,74.3,69.5,30.01,SSW,208,0.0,4.0,85,0.00,,,0.00,60,WxPro DR1,2013-06-23 10:41:00,
2013-06-23 06:46:00,74.5,69.7,30.01,SSW,198,0.0,5.0,85,0.00,,,0.00,60,WxPro DR1,2013-06-23 10:46:00,
2013-06-23 06:51:00,74.7,69.9,30.00,SSW,198,0.0,5.0,85,0.00,,,0.00,49,WxPro DR1,2013-06-23 10:51:00,
2013-06-23 06:56:00,74.9,69.7,30.01,SSW,198,0.0,4.0,84,0.00,,,0.00,58,WxPro DR1,2013-06-23 10:56:00,
2013-06-23 07:01:00,74.9,69.7,30.01,SSW,196,3.0,4.0,84,0.00,,,0.00,77,WxPro DR1,2013-06-23 11:01:00,
2013-06-23 07:06:00,75.0,69.9,30.02,SSW,196,1.0,4.0,84,0.00,,,0.00,120,WxPro DR1,2013-06-23 11:06:00,
2013-06-23 07:11:00,75.3,70.2,30.02,SSW,197,0.0,4.0,84,0.00,,,0.00,105,WxPro DR1,2013-06-23 11:11:00,
2013-06-23 07:16:00,75.7,70.1,30.02,SSW,198,0.0,4.0,83,0.00,,,0.00,179,WxPro DR1,2013-06-23 11:16:00,
2013-06-23 07:21:00,76.0,70.5,30.02,SSW,195,0.0,4.0,83,0.00,,,0.00,195,WxPro DR1,2013-06-23 11:21:00,
2013-06-23 07:26:00,76.4,70.6,30.02,SSW,195,0.0,4.0,82,0.00,,,0.00,209,WxPro DR1,2013-06-23 11:26:00,
2013-06-23 07:31:00,76.8,70.8,30.02,SSW,195,0.0,4.0,82,0.00,,,0.00,220,WxPro DR1,2013-06-23 11:31:00,
2013-06-23 07:36:00,77.1,70.8,30.02,South,181,0.0,5.0,81,0.00,,,0.00,232,WxPro DR1,2013-06-23 11:36:00,
2013-06-23 07:41:00,77.5,71.2,30.02,South,182,1.0,5.0,81,0.00,,,0.00,241,WxPro DR1,2013-06-23 11:41:00,
2013-06-23 07:46:00,77.7,71.0,30.02,SSW,199,0.0,5.0,80,0.00,,,0.00,236,WxPro DR1,2013-06-23 11:46:00,
2013-06-23 07:51:00,77.8,71.2,30.02,SSW,202,0.0,5.0,80,0.00,,,0.00,251,WxPro DR1,2013-06-23 11:51:00,
2013-06-23 07:56:00,78.0,71.4,30.02,South,190,0.0,5.0,80,0.00,,,0.00,267,WxPro DR1,2013-06-23 11:56:00,
2013-06-23 08:01:00,78.2,71.2,30.02,SSW,195,0.0,5.0,79,0.00,,,0.00,272,WxPro DR1,2013-06-23 12:01:00,
2013-06-23 08:06:00,78.4,71.7,30.02,SSW,199,0.0,5.0,80,0.00,,,0.00,311,WxPro DR1,2013-06-23 12:06:00,
2013-06-23 08:11:00,78.7,72.0,30.02,SSW,199,0.0,4.0,80,0.00,,,0.00,318,WxPro DR1,2013-06-23 12:11:00,
2013-06-23 08:16:00,79.1,71.7,30.02,SSW,201,0.0,7.0,78,0.00,,,0.00,336,WxPro DR1,2013-06-23 12:16:00,
2013-06-23 08:21:00,79.3,72.2,30.02,SSW,201,0.0,7.0,79,0.00,,,0.00,357,WxPro DR1,2013-06-23 12:21:00,
2013-06-23 08:26:00,79.6,72.1,30.02,SSW,195,4.0,4.0,78,0.00,,,0.00,359,WxPro DR1,2013-06-23 12:26:00,
2013-06-23 08:31:00,79.7,71.8,30.02,SE,143,0.0,5.0,77,0.00,,,0.00,380,WxPro DR1,2013-06-23 12:31:00,
2013-06-23 08:36:00,79.8,72.3,30.02,SSW,211,0.0,5.0,78,0.00,,,0.00,394,WxPro DR1,2013-06-23 12:36:00,
2013-06-23 08:41:00,80.2,72.3,30.02,South,190,0.0,4.0,77,0.00,,,0.00,411,WxPro DR1,2013-06-23 12:41:00,
2013-06-23 08:46:00,80.7,72.8,30.02,South,191,0.0,4.0,77,0.00,,,0.00,424,WxPro DR1,2013-06-23 12:46:00,
2013-06-23 08:51:00,80.8,72.6,30.02,SSW,209,0.0,8.0,76,0.00,,,0.00,461,WxPro DR1,2013-06-23 12:51:00,
2013-06-23 08:56:00,80.8,72.6,30.02,SW,215,0.0,8.0,76,0.00,,,0.00,480,WxPro DR1,2013-06-23 12:56:00,
2013-06-23 09:01:00,81.2,72.4,30.02,SSW,201,1.0,9.0,75,0.00,,,0.00,490,WxPro DR1,2013-06-23 13:01:00,
2013-06-23 09:06:00,81.4,72.7,30.01,WSW,243,0.0,9.0,75,0.00,,,0.00,501,WxPro DR1,2013-06-23 13:06:00,
2013-06-23 09:11:00,81.8,73.1,30.02,SSW,207,2.0,6.0,75,0.00,,,0.00,517,WxPro DR1,2013-06-23 13:11:00,
2013-06-23 09:16:00,81.9,72.8,30.02,SSW,196,2.0,6.0,74,0.00,,,0.00,526,WxPro DR1,2013-06-23 13:16:00,
2013-06-23 09:21:00,82.1,73.3,30.02,SSW,198,1.0,6.0,75,0.00,,,0.00,541,WxPro DR1,2013-06-23 13:21:00,
2013-06-23 09:26:00,82.5,73.3,30.02,South,180,0.0,6.0,74,0.00,,,0.00,559,WxPro DR1,2013-06-23 13:26:00,
2013-06-23 09:31:00,82.5,73.4,30.02,SW,223,3.0,6.0,74,0.00,,,0.00,573,WxPro DR1,2013-06-23 13:31:00,
2013-06-23 09:36:00,82.7,73.5,30.02,WSW,249,2.0,7.0,74,0.00,,,0.00,592,WxPro DR1,2013-06-23 13:36:00,
2013-06-23 09:41:00,82.9,73.7,30.02,West,274,6.0,7.0,74,0.00,,,0.00,589,WxPro DR1,2013-06-23 13:41:00,
2013-06-23 09:46:00,83.3,73.9,30.02,WSW,244,3.0,7.0,73,0.00,,,0.00,610,WxPro DR1,2013-06-23 13:46:00,
2013-06-23 09:51:00,83.5,73.9,30.02,South,188,1.0,6.0,73,0.00,,,0.00,624,WxPro DR1,2013-06-23 13:51:00,
2013-06-23 09:56:00,83.8,73.9,30.02,SSW,213,1.0,6.0,72,0.00,,,0.00,636,WxPro DR1,2013-06-23 13:56:00,
2013-06-23 10:01:00,83.8,73.8,30.01,SSW,201,1.0,5.0,72,0.00,,,0.00,647,WxPro DR1,2013-06-23 14:01:00,
2013-06-23 10:06:00,83.8,74.2,30.01,South,180,0.0,5.0,73,0.00,,,0.00,668,WxPro DR1,2013-06-23 14:06:00,
2013-06-23 10:11:00,84.1,74.4,30.01,SSW,211,0.0,5.0,73,0.00,,,0.00,679,WxPro DR1,2013-06-23 14:11:00,
2013-06-23 10:16:00,84.3,74.3,30.01,SW,216,0.0,6.0,72,0.00,,,0.00,686,WxPro DR1,2013-06-23 14:16:00,
2013-06-23 10:21:00,84.5,74.4,30.01,SSW,198,2.0,6.0,72,0.00,,,0.00,703,WxPro DR1,2013-06-23 14:21:00,
2013-06-23 10:26:00,84.9,74.8,30.01,SSW,203,0.0,6.0,72,0.00,,,0.00,712,WxPro DR1,2013-06-23 14:26:00,
2013-06-23 10:31:00,85.5,74.6,30.01,South,174,2.0,7.0,70,0.00,,,0.00,717,WxPro DR1,2013-06-23 14:31:00,
2013-06-23 10:36:00,85.4,74.5,30.01,SSW,210,5.0,9.0,70,0.00,,,0.00,735,WxPro DR1,2013-06-23 14:36:00,
2013-06-23 10:41:00,85.2,74.7,30.01,NNW,342,2.0,12.0,71,0.00,,,0.00,754,WxPro DR1,2013-06-23 14:41:00,
2013-06-23 10:46:00,85.6,74.6,30.01,South,179,0.0,12.0,70,0.00,,,0.00,763,WxPro DR1,2013-06-23 14:46:00,
2013-06-23 10:51:00,85.9,75.0,30.01,West,259,6.0,6.0,70,0.00,,,0.00,768,WxPro DR1,2013-06-23 14:51:00,
2013-06-23 10:56:00,86.0,74.9,30.01,South,179,3.0,6.0,70,0.00,,,0.00,788,WxPro DR1,2013-06-23 14:56:00,
2013-06-23 11:01:00,85.9,75.2,30.01,WNW,290,2.0,6.0,71,0.00,,,0.00,798,WxPro DR1,2013-06-23 15:01:00,
2013-06-23 11:06:00,86.4,75.3,30.01,South,180,3.0,6.0,70,0.00,,,0.00,838,WxPro DR1,2013-06-23 15:06:00,
2013-06-23 11:11:00,86.5,75.4,30.01,SW,233,3.0,7.0,70,0.00,,,0.00,888,WxPro DR1,2013-06-23 15:11:00,
2013-06-23 11:16:00,86.7,75.3,30.01,South,190,1.0,7.0,69,0.00,,,0.00,940,WxPro DR1,2013-06-23 15:16:00,
2013-06-23 11:21:00,87.3,75.9,30.01,SSW,196,2.0,7.0,69,0.00,,,0.00,991,WxPro DR1,2013-06-23 15:21:00,
2013-06-23 11:26:00,87.7,76.1,30.01,SSW,199,0.0,5.0,69,0.00,,,0.00,213,WxPro DR1,2013-06-23 15:26:00,
2013-06-23 11:31:00,87.4,75.8,30.00,SW,236,0.0,10.0,69,0.00,,,0.00,313,WxPro DR1,2013-06-23 15:31:00,
2013-06-23 11:36:00,87.3,75.6,30.00,WSW,248,0.0,10.0,68,0.00,,,0.00,838,WxPro DR1,2013-06-23 15:36:00,
2013-06-23 11:41:00,87.8,76.1,30.00,WSW,251,1.0,9.0,68,0.00,,,0.00,867,WxPro DR1,2013-06-23 15:41:00,
2013-06-23 11:46:00,88.1,76.2,30.00,SW,219,0.0,10.0,68,0.00,,,0.00,911,WxPro DR1,2013-06-23 15:46:00,
2013-06-23 11:51:00,88.4,76.4,30.00,SSE,167,4.0,10.0,68,0.00,,,0.00,918,WxPro DR1,2013-06-23 15:51:00,
2013-06-23 11:56:00,88.7,76.2,30.00,WNW,290,6.0,10.0,67,0.00,,,0.00,1005,WxPro DR1,2013-06-23 15:56:00,
2013-06-23 12:01:00,88.8,75.9,30.00,WSW,257,4.0,7.0,66,0.00,,,0.00,1011,WxPro DR1,2013-06-23 16:01:00,
2013-06-23 12:06:00,88.5,76.5,30.00,SW,228,4.0,9.0,68,0.00,,,0.00,993,WxPro DR1,2013-06-23 16:06:00,
2013-06-23 12:11:00,88.8,76.4,29.99,West,272,1.0,9.0,67,0.00,,,0.00,838,WxPro DR1,2013-06-23 16:11:00,
2013-06-23 12:16:00,88.8,76.7,30.00,West,266,3.0,6.0,68,0.00,,,0.00,241,WxPro DR1,2013-06-23 16:16:00,
2013-06-23 12:21:00,88.2,76.5,30.00,West,271,3.0,7.0,68,0.00,,,0.00,928,WxPro DR1,2013-06-23 16:21:00,
2013-06-23 12:26:00,87.9,76.0,29.99,SW,234,0.0,9.0,68,0.00,,,0.00,944,WxPro DR1,2013-06-23 16:26:00,
2013-06-23 12:31:00,88.2,76.4,29.99,West,263,5.0,11.0,68,0.00,,,0.00,969,WxPro DR1,2013-06-23 16:31:00,
2013-06-23 12:36:00,88.2,76.3,29.99,WNW,288,4.0,11.0,68,0.00,,,0.00,942,WxPro DR1,2013-06-23 16:36:00,
2013-06-23 12:41:00,88.3,76.3,29.99,West,269,5.0,9.0,68,0.00,,,0.00,940,WxPro DR1,2013-06-23 16:41:00,
2013-06-23 12:46:00,88.6,76.5,29.98,SW,214,4.0,8.0,68,0.00,,,0.00,939,WxPro DR1,2013-06-23 16:46:00,
2013-06-23 12:51:00,88.6,76.2,29.99,NW,316,3.0,9.0,67,0.00,,,0.00,962,WxPro DR1,2013-06-23 16:51:00,
2013-06-23 12:56:00,88.5,76.1,29.99,WNW,289,6.0,12.0,67,0.00,,,0.00,926,WxPro DR1,2013-06-23 16:56:00,
2013-06-23 12:57:00,88.5,76.0,29.99,NNW,327,5.0,12.0,67,0.00,,,0.00,926,WxPro DR1,2013-06-23 16:57:00,
2013-06-23 12:58:00,88.5,75.7,29.99,WNW,290,4.0,12.0,66,0.00,,,0.00,918,WxPro DR1,2013-06-23 16:58:00,
2013-06-23 13:03:00,88.3,75.9,29.99,WSW,253,2.0,12.0,67,0.00,,,0.00,909,WxPro DR1,2013-06-23 17:03:00,
2013-06-23 13:08:00,88.4,75.8,29.99,SW,218,6.0,10.0,66,0.00,,,0.00,947,WxPro DR1,2013-06-23 17:08:00,
2013-06-23 13:13:00,88.8,75.0,29.99,SW,225,5.0,13.0,64,0.00,,,0.00,926,WxPro DR1,2013-06-23 17:13:00,
2013-06-23 13:18:00,88.9,76.0,29.98,SW,223,2.0,13.0,66,0.00,,,0.00,956,WxPro DR1,2013-06-23 17:18:00,
2013-06-23 13:23:00,89.4,76.3,29.98,WNW,296,9.0,11.0,66,0.00,,,0.00,953,WxPro DR1,2013-06-23 17:23:00,
2013-06-23 13:28:00,89.1,76.3,29.98,SW,228,4.0,11.0,66,0.00,,,0.00,188,WxPro DR1,2013-06-23 17:28:00,
2013-06-23 13:33:00,88.8,76.4,29.98,NW,305,4.0,10.0,67,0.00,,,0.00,958,WxPro DR1,2013-06-23 17:33:00,
2013-06-23 13:38:00,89.1,76.2,29.98,NW,306,2.0,10.0,66,0.00,,,0.00,944,WxPro DR1,2013-06-23 17:38:00,
2013-06-23 13:43:00,89.4,76.1,29.98,NNW,329,5.0,10.0,65,0.00,,,0.00,933,WxPro DR1,2013-06-23 17:43:00,
2013-06-23 13:48:00,89.2,75.9,29.97,West,275,4.0,11.0,65,0.00,,,0.00,926,WxPro DR1,2013-06-23 17:48:00,
2013-06-23 13:53:00,89.2,75.9,29.97,West,262,1.0,11.0,65,0.00,,,0.00,923,WxPro DR1,2013-06-23 17:53:00,
2013-06-23 13:58:00,89.5,75.2,29.97,NW,314,6.0,10.0,63,0.00,,,0.00,919,WxPro DR1,2013-06-23 17:58:00,
2013-06-23 14:03:00,89.6,75.3,29.97,North,356,5.0,10.0,63,0.00,,,0.00,923,WxPro DR1,2013-06-23 18:03:00,
2013-06-23 14:08:00,89.7,74.8,29.97,North,356,2.0,9.0,62,0.00,,,0.00,919,WxPro DR1,2013-06-23 18:08:00,
2013-06-23 14:13:00,89.6,75.2,29.96,WNW,282,5.0,15.0,63,0.00,,,0.00,942,WxPro DR1,2013-06-23 18:13:00,
2013-06-23 14:18:00,89.7,74.5,29.97,SW,234,0.0,15.0,61,0.00,,,0.00,962,WxPro DR1,2013-06-23 18:18:00,
2013-06-23 14:23:00,90.1,75.3,29.97,WNW,302,5.0,10.0,62,0.00,,,0.00,874,WxPro DR1,2013-06-23 18:23:00,
2013-06-23 14:28:00,90.1,74.3,29.96,SW,234,0.0,11.0,60,0.00,,,0.00,165,WxPro DR1,2013-06-23 18:28:00,
2013-06-23 14:33:00,89.1,73.9,29.96,WNW,283,5.0,11.0,61,0.00,,,0.00,229,WxPro DR1,2013-06-23 18:33:00,
2013-06-23 14:38:00,88.3,73.6,29.96,West,273,2.0,10.0,62,0.00,,,0.00,341,WxPro DR1,2013-06-23 18:38:00,
2013-06-23 14:43:00,88.1,73.4,29.96,West,273,4.0,9.0,62,0.00,,,0.00,701,WxPro DR1,2013-06-23 18:43:00,
2013-06-23 14:48:00,88.6,73.4,29.96,SW,230,2.0,9.0,61,0.00,,,0.00,661,WxPro DR1,2013-06-23 18:48:00,
2013-06-23 14:53:00,89.0,73.3,29.96,WSW,257,1.0,11.0,60,0.00,,,0.00,577,WxPro DR1,2013-06-23 18:53:00,
2013-06-23 14:58:00,89.0,73.9,29.96,West,280,1.0,12.0,61,0.00,,,0.00,613,WxPro DR1,2013-06-23 18:58:00,
2013-06-23 15:03:00,89.1,74.3,29.96,West,268,4.0,12.0,62,0.00,,,0.00,584,WxPro DR1,2013-06-23 19:03:00,
2013-06-23 15:08:00,89.3,74.3,29.96,West,263,0.0,7.0,62,0.00,,,0.00,833,WxPro DR1,2013-06-23 19:08:00,
2013-06-23 15:13:00,89.6,74.7,29.96,West,271,7.0,14.0,62,0.00,,,0.00,881,WxPro DR1,2013-06-23 19:13:00,
2013-06-23 15:18:00,89.9,74.6,29.96,West,274,2.0,14.0,61,0.00,,,0.00,947,WxPro DR1,2013-06-23 19:18:00,
2013-06-23 15:23:00,90.2,74.9,29.95,WSW,248,3.0,12.0,61,0.00,,,0.00,926,WxPro DR1,2013-06-23 19:23:00,
2013-06-23 15:28:00,90.5,75.2,29.95,South,183,3.0,12.0,61,0.00,,,0.00,865,WxPro DR1,2013-06-23 19:28:00,
2013-06-23 15:33:00,90.5,75.6,29.95,West,269,3.0,13.0,62,0.00,,,0.00,863,WxPro DR1,2013-06-23 19:33:00,
2013-06-23 15:38:00,90.4,75.3,29.94,WNW,298,4.0,13.0,61,0.00,,,0.00,823,WxPro DR1,2013-06-23 19:38:00,
2013-06-23 15:43:00,90.2,76.2,29.95,SSW,200,6.0,13.0,64,0.00,,,0.00,858,WxPro DR1,2013-06-23 19:43:00,
2013-06-23 15:48:00,90.1,75.9,29.95,West,268,9.0,12.0,63,0.00,,,0.00,896,WxPro DR1,2013-06-23 19:48:00,
2013-06-23 15:53:00,90.2,75.9,29.95,WSW,244,14.0,14.0,63,0.00,,,0.00,898,WxPro DR1,2013-06-23 19:53:00,
2013-06-23 15:58:00,89.8,75.5,29.96,SSW,199,6.0,16.0,63,0.00,,,0.00,803,WxPro DR1,2013-06-23 19:58:00,
2013-06-23 16:03:00,89.4,75.1,29.96,SW,221,3.0,16.0,63,0.00,,,0.00,724,WxPro DR1,2013-06-23 20:03:00,
2013-06-23 16:08:00,89.1,75.3,29.96,West,264,9.0,14.0,64,0.00,,,0.00,526,WxPro DR1,2013-06-23 20:08:00,
2013-06-23 16:13:00,88.9,73.8,29.96,West,273,7.0,12.0,61,0.00,,,0.00,708,WxPro DR1,2013-06-23 20:13:00,
2013-06-23 16:18:00,88.5,73.3,29.96,SSW,196,2.0,13.0,61,0.00,,,0.00,636,WxPro DR1,2013-06-23 20:18:00,
2013-06-23 16:23:00,88.3,73.1,29.96,SSW,194,5.0,13.0,61,0.00,,,0.00,397,WxPro DR1,2013-06-23 20:23:00,
2013-06-23 16:28:00,88.0,73.8,29.96,WSW,240,9.0,9.0,63,0.00,,,0.00,907,WxPro DR1,2013-06-23 20:28:00,
2013-06-23 16:33:00,88.5,73.3,29.96,WSW,244,0.0,9.0,61,0.00,,,0.00,865,WxPro DR1,2013-06-23 20:33:00,
2013-06-23 16:38:00,89.4,73.8,29.96,South,169,0.0,9.0,60,0.00,,,0.00,795,WxPro DR1,2013-06-23 20:38:00,
2013-06-23 16:43:00,90.1,73.3,29.96,SW,221,1.0,8.0,58,0.00,,,0.00,738,WxPro DR1,2013-06-23 20:43:00,
2013-06-23 16:48:00,90.1,73.8,29.95,NW,323,6.0,10.0,59,0.00,,,0.00,691,WxPro DR1,2013-06-23 20:48:00,
2013-06-23 16:53:00,89.7,73.8,29.95,SW,217,4.0,12.0,60,0.00,,,0.00,657,WxPro DR1,2013-06-23 20:53:00,
2013-06-23 16:58:00,89.6,74.2,29.95,WSW,244,4.0,12.0,61,0.00,,,0.00,635,WxPro DR1,2013-06-23 20:58:00,
2013-06-23 17:03:00,89.6,73.7,29.94,WSW,246,3.0,10.0,60,0.00,,,0.00,603,WxPro DR1,2013-06-23 21:03:00,
2013-06-23 17:08:00,89.1,73.3,29.94,WNW,284,4.0,13.0,60,0.00,,,0.00,592,WxPro DR1,2013-06-23 21:08:00,
2013-06-23 17:13:00,88.9,72.7,29.95,SW,236,4.0,17.0,59,0.00,,,0.00,571,WxPro DR1,2013-06-23 21:13:00,
2013-06-23 17:18:00,89.0,72.5,29.95,West,270,6.0,17.0,58,0.00,,,0.00,557,WxPro DR1,2013-06-23 21:18:00,
2013-06-23 17:23:00,89.2,72.2,29.95,SW,225,9.0,13.0,58,0.00,,,0.00,533,WxPro DR1,2013-06-23 21:23:00,
2013-06-23 17:28:00,89.1,72.3,29.95,SSW,213,0.0,11.0,58,0.00,,,0.00,522,WxPro DR1,2013-06-23 21:28:00,
2013-06-23 17:33:00,89.1,72.9,29.95,SSW,211,0.0,9.0,59,0.00,,,0.00,503,WxPro DR1,2013-06-23 21:33:00,
2013-06-23 17:38:00,89.4,72.6,29.95,SSE,161,0.0,9.0,58,0.00,,,0.00,483,WxPro DR1,2013-06-23 21:38:00,
2013-06-23 17:43:00,89.7,72.6,29.95,West,267,2.0,9.0,57,0.00,,,0.00,468,WxPro DR1,2013-06-23 21:43:00,
2013-06-23 17:48:00,89.7,73.1,29.95,WNW,299,7.0,7.0,58,0.00,,,0.00,448,WxPro DR1,2013-06-23 21:48:00,
2013-06-23 17:53:00,89.8,73.3,29.95,NW,323,5.0,7.0,59,0.00,,,0.00,436,WxPro DR1,2013-06-23 21:53:00,
2013-06-23 17:58:00,89.8,73.8,29.95,WSW,245,1.0,7.0,60,0.00,,,0.00,410,WxPro DR1,2013-06-23 21:58:00,
2013-06-23 18:03:00,89.6,73.0,29.95,South,186,0.0,6.0,58,0.00,,,0.00,401,WxPro DR1,2013-06-23 22:03:00,
2013-06-23 18:08:00,89.2,73.0,29.95,WNW,292,0.0,10.0,59,0.00,,,0.00,388,WxPro DR1,2013-06-23 22:08:00,
2013-06-23 18:13:00,88.6,72.9,29.95,SSW,211,3.0,10.0,60,0.00,,,0.00,369,WxPro DR1,2013-06-23 22:13:00,
2013-06-23 18:18:00,88.1,72.4,29.95,South,190,3.0,10.0,60,0.00,,,0.00,350,WxPro DR1,2013-06-23 22:18:00,
2013-06-23 18:23:00,87.7,72.4,29.95,West,270,7.0,12.0,61,0.00,,,0.00,341,WxPro DR1,2013-06-23 22:23:00,
2013-06-23 18:28:00,87.6,72.5,29.95,SW,234,2.0,12.0,61,0.00,,,0.00,325,WxPro DR1,2013-06-23 22:28:00,
2013-06-23 18:33:00,87.5,72.4,29.95,West,279,1.0,13.0,61,0.00,,,0.00,309,WxPro DR1,2013-06-23 22:33:00,
2013-06-23 18:38:00,87.5,72.3,29.96,West,275,1.0,13.0,61,0.00,,,0.00,295,WxPro DR1,2013-06-23 22:38:00,
2013-06-23 18:43:00,87.3,72.6,29.96,WSW,246,4.0,12.0,62,0.00,,,0.00,283,WxPro DR1,2013-06-23 22:43:00,
2013-06-23 18:48:00,87.4,72.7,29.96,SSE,166,0.0,12.0,62,0.00,,,0.00,265,WxPro DR1,2013-06-23 22:48:00,
2013-06-23 18:53:00,87.3,72.1,29.96,WSW,240,2.0,8.0,61,0.00,,,0.00,258,WxPro DR1,2013-06-23 22:53:00,
2013-06-23 18:58:00,87.1,72.5,29.95,SSW,211,5.0,7.0,62,0.00,,,0.00,244,WxPro DR1,2013-06-23 22:58:00,
2013-06-23 19:03:00,86.9,72.3,29.95,SSW,213,0.0,10.0,62,0.00,,,0.00,225,WxPro DR1,2013-06-23 23:03:00,
2013-06-23 19:08:00,86.6,72.9,29.95,SSW,193,0.0,10.0,64,0.00,,,0.00,149,WxPro DR1,2013-06-23 23:08:00,
2013-06-23 19:13:00,86.4,72.3,29.95,SSW,210,4.0,6.0,63,0.00,,,0.00,84,WxPro DR1,2013-06-23 23:13:00,
2013-06-23 19:18:00,85.7,71.7,29.95,SW,236,1.0,8.0,63,0.00,,,0.00,58,WxPro DR1,2013-06-23 23:18:00,
2013-06-23 19:23:00,85.2,71.1,29.95,SW,214,1.0,8.0,63,0.00,,,0.00,40,WxPro DR1,2013-06-23 23:23:00,
2013-06-23 19:28:00,84.7,71.1,29.95,South,182,0.0,7.0,64,0.00,,,0.00,37,WxPro DR1,2013-06-23 23:28:00,
2013-06-23 19:33:00,84.2,71.0,29.95,SW,232,2.0,7.0,65,0.00,,,0.00,39,WxPro DR1,2013-06-23 23:33:00,
2013-06-23 19:38:00,84.0,70.9,29.95,SSW,207,1.0,6.0,65,0.00,,,0.00,44,WxPro DR1,2013-06-23 23:38:00,
2013-06-23 19:43:00,83.6,70.0,29.95,SW,223,0.0,11.0,64,0.00,,,0.00,47,WxPro DR1,2013-06-23 23:43:00,
2013-06-23 19:48:00,83.3,69.5,29.95,SSW,199,3.0,11.0,63,0.00,,,0.00,49,WxPro DR1,2013-06-23 23:48:00,
2013-06-23 19:53:00,83.1,69.6,29.95,SW,223,2.0,6.0,64,0.00,,,0.00,44,WxPro DR1,2013-06-23 23:53:00,
2013-06-23 19:58:00,82.8,68.9,29.95,SW,228,1.0,6.0,63,0.00,,,0.00,40,WxPro DR1,2013-06-23 23:58:00,
2013-06-23 20:03:00,82.8,68.8,29.95,SW,225,3.0,5.0,63,0.00,,,0.00,40,WxPro DR1,2013-06-24 00:03:00,
2013-06-23 20:08:00,82.6,69.2,29.95,SW,219,1.0,5.0,64,0.00,,,0.00,40,WxPro DR1,2013-06-24 00:08:00,
2013-06-23 20:13:00,82.5,69.2,29.95,SSW,209,2.0,7.0,64,0.00,,,0.00,33,WxPro DR1,2013-06-24 00:13:00,
2013-06-23 20:18:00,82.4,69.5,29.95,South,187,0.0,7.0,65,0.00,,,0.00,32,WxPro DR1,2013-06-24 00:18:00,
2013-06-23 20:23:00,82.2,70.1,29.95,South,187,4.0,6.0,67,0.00,,,0.00,26,WxPro DR1,2013-06-24 00:23:00,
2013-06-23 20:28:00,81.9,70.5,29.95,SSE,161,3.0,7.0,68,0.00,,,0.00,21,WxPro DR1,2013-06-24 00:28:00,
2013-06-23 20:33:00,81.5,70.8,29.95,South,171,0.0,7.0,70,0.00,,,0.00,18,WxPro DR1,2013-06-24 00:33:00,
2013-06-23 20:38:00,81.1,70.8,29.95,SSW,192,1.0,8.0,71,0.00,,,0.00,12,WxPro DR1,2013-06-24 00:38:00,
2013-06-23 20:43:00,80.6,70.3,29.95,South,176,11.0,11.0,71,0.00,,,0.00,11,WxPro DR1,2013-06-24 00:43:00,
2013-06-23 20:48:00,80.0,70.1,29.95,South,176,0.0,11.0,72,0.00,,,0.00,7,WxPro DR1,2013-06-24 00:48:00,
2013-06-23 20:53:00,79.6,69.7,29.95,SSW,198,4.0,7.0,72,0.00,,,0.00,5,WxPro DR1,2013-06-24 00:53:00,
2013-06-23 20:58:00,79.2,69.7,29.95,SSW,201,5.0,7.0,73,0.00,,,0.00,0,WxPro DR1,2013-06-24 00:58:00,
2013-06-23 21:03:00,78.8,69.5,29.95,SSW,194,0.0,7.0,73,0.00,,,0.00,0,WxPro DR1,2013-06-24 01:03:00,
2013-06-23 21:08:00,78.5,69.5,29.95,SSW,194,0.0,6.0,74,0.00,,,0.00,0,WxPro DR1,2013-06-24 01:08:00,
2013-06-23 21:13:00,78.2,69.2,29.95,SSW,194,0.0,6.0,74,0.00,,,0.00,0,WxPro DR1,2013-06-24 01:13:00,
2013-06-23 21:18:00,77.8,69.2,29.95,SSW,195,0.0,4.0,75,0.00,,,0.00,0,WxPro DR1,2013-06-24 01:18:00,
2013-06-23 21:23:00,77.5,69.2,29.95,SSW,197,0.0,3.0,76,0.00,,,0.00,0,WxPro DR1,2013-06-24 01:23:00,
2013-06-23 21:28:00,77.2,69.1,29.95,SSW,198,0.0,3.0,76,0.00,,,0.00,0,WxPro DR1,2013-06-24 01:28:00,
2013-06-23 21:33:00,77.0,69.2,29.95,SSW,200,0.0,4.0,77,0.00,,,0.00,0,WxPro DR1,2013-06-24 01:33:00,
2013-06-23 21:38:00,76.8,69.0,29.95,SSW,202,0.0,4.0,77,0.00,,,0.00,0,WxPro DR1,2013-06-24 01:38:00,
2013-06-23 21:43:00,76.6,68.8,29.96,SSW,201,1.0,4.0,77,0.00,,,0.00,0,WxPro DR1,2013-06-24 01:43:00,
2013-06-23 21:48:00,76.4,69.1,29.96,SSW,201,2.0,4.0,78,0.00,,,0.00,0,WxPro DR1,2013-06-24 01:48:00,
2013-06-23 21:53:00,76.2,68.9,29.96,SSW,201,1.0,4.0,78,0.00,,,0.00,0,WxPro DR1,2013-06-24 01:53:00,
2013-06-23 21:58:00,76.1,68.8,29.96,SSW,206,0.0,4.0,78,0.00,,,0.00,0,WxPro DR1,2013-06-24 01:58:00,
2013-06-23 22:03:00,76.0,68.6,29.96,SSW,202,0.0,4.0,78,0.00,,,0.00,0,WxPro DR1,2013-06-24 02:03:00,
2013-06-23 22:08:00,75.9,68.9,29.96,SSW,204,0.0,6.0,79,0.00,,,0.00,0,WxPro DR1,2013-06-24 02:08:00,
2013-06-23 22:13:00,75.8,68.8,29.96,SSW,204,1.0,6.0,79,0.00,,,0.00,0,WxPro DR1,2013-06-24 02:13:00,
2013-06-23 22:18:00,75.7,68.7,29.96,SSW,202,0.0,4.0,79,0.00,,,0.00,0,WxPro DR1,2013-06-24 02:18:00,
2013-06-23 22:23:00,75.6,69.0,29.97,SSW,194,2.0,5.0,80,0.00,,,0.00,0,WxPro DR1,2013-06-24 02:23:00,
2013-06-23 22:28:00,75.5,68.9,29.97,SSW,195,5.0,5.0,80,0.00,,,0.00,0,WxPro DR1,2013-06-24 02:28:00,
2013-06-23 22:33:00,75.4,68.8,29.97,South,180,1.0,6.0,80,0.00,,,0.00,0,WxPro DR1,2013-06-24 02:33:00,
2013-06-23 22:38:00,75.3,68.7,29.97,South,184,1.0,6.0,80,0.00,,,0.00,0,WxPro DR1,2013-06-24 02:38:00,
2013-06-23 22:43:00,75.2,68.6,29.97,South,184,1.0,3.0,80,0.00,,,0.00,0,WxPro DR1,2013-06-24 02:43:00,
2013-06-23 22:48:00,75.1,68.5,29.97,South,184,0.0,3.0,80,0.00,,,0.00,0,WxPro DR1,2013-06-24 02:48:00,
2013-06-23 22:53:00,75.0,68.4,29.97,South,187,0.0,5.0,80,0.00,,,0.00,0,WxPro DR1,2013-06-24 02:53:00,
2013-06-23 22:58:00,74.9,68.7,29.97,South,188,0.0,5.0,81,0.00,,,0.00,0,WxPro DR1,2013-06-24 02:58:00,
2013-06-23 23:03:00,74.8,68.6,29.97,South,188,2.0,2.0,81,0.00,,,0.00,0,WxPro DR1,2013-06-24 03:03:00,
2013-06-23 23:08:00,74.7,68.4,29.97,South,188,0.0,3.0,81,0.00,,,0.00,0,WxPro DR1,2013-06-24 03:08:00,
2013-06-23 23:13:00,74.5,68.3,29.97,South,186,0.0,3.0,81,0.00,,,0.00,0,WxPro DR1,2013-06-24 03:13:00,
2013-06-23 23:18:00,74.4,68.2,29.97,South,185,1.0,3.0,81,0.00,,,0.00,0,WxPro DR1,2013-06-24 03:18:00,
2013-06-23 23:23:00,74.3,68.1,29.97,South,189,1.0,5.0,81,0.00,,,0.00,0,WxPro DR1,2013-06-24 03:23:00,
2013-06-23 23:28:00,74.4,68.2,29.97,South,182,0.0,5.0,81,0.00,,,0.00,0,WxPro DR1,2013-06-24 03:28:00,
2013-06-23 23:33:00,74.4,68.2,29.97,SSW,212,1.0,5.0,81,0.00,,,0.00,0,WxPro DR1,2013-06-24 03:33:00,
2013-06-23 23:38:00,74.5,68.3,29.97,SSW,196,0.0,6.0,81,0.00,,,0.00,0,WxPro DR1,2013-06-24 03:38:00,
2013-06-23 23:43:00,74.4,68.2,29.97,SSE,168,1.0,6.0,81,0.01,,,0.01,0,WxPro DR1,2013-06-24 03:43:00,
2013-06-23 23:48:00,74.3,68.1,29.97,SSW,198,2.0,5.0,81,0.01,,,0.01,0,WxPro DR1,2013-06-24 03:48:00,
2013-06-23 23:53:00,74.2,68.1,29.97,SSW,198,0.0,5.0,81,0.01,,,0.01,0,WxPro DR1,2013-06-24 03:53:00,
2013-06-23 23:58:00,74.0,68.1,29.97,SSW,198,2.0,5.0,82,0.01,,,0.01,0,WxPro DR1,2013-06-24 03:58:00,